#timestamp,LO_Frequency,Hit,StdDev 
1540929615.2,286047004.8,N
1540929635.1,286047004.8,N
1540929636.0,286047004.8,N
1540929655.8,286047004.9,N
1540929675.6,286047004.5,N
1540929695.5,286047005.1,N
1540929715.3,286047005.3,N
1540929735.1,286047005.1,N
1540929755.9,286047005.1,N
1540929775.7,286047005.0,N
1540929795.6,286047004.5,N
1540929815.4,286047007.6,N
1540929835.2,286047007.6,N
1540929855.1,286047007.4,N
1540929856.0,286047007.4,N
1540929875.8,286047008.0,N
1540929895.7,286047007.9,N
1540929915.5,286047010.3,N
1540929935.3,286047008.0,N
1540929955.2,286047008.2,N
1540929975.9,286047008.5,N
1540929995.7,286047008.0,N
1540930015.6,286047007.7,N
1540930035.4,286047010.4,N
1540930055.3,286047008.8,N
1540930075.1,286047008.3,N
1540930076.0,286047008.3,Y
1540930095.8,286047001.1,P
1540930115.7,286046998.1,N
1540930135.5,286047000.9,N
1540930155.4,286047001.1,N
1540930175.2,286047001.1,N
1540930195.0,286046998.6,N
1540930195.9,286046998.6,N
1540930215.8,286046999.3,N
1540930235.6,286046997.4,N
1540930255.4,286046997.0,N
1540930275.3,286046999.2,N
1540930295.1,286046999.2,N
1540930315.9,286046996.5,N
1540930335.7,286046999.6,N
1540930355.5,286046998.2,N
1540930375.4,286046999.4,N
1540930395.2,286046998.4,N
1540930415.0,286046998.7,N
1540930415.9,286046998.7,N
1540930435.8,286046998.3,N
1540930455.6,286047001.0,N
1540930475.4,286047002.5,N
1540930495.3,286046999.9,N
1540930515.1,286047001.6,N
1540930535.9,286047004.4,N
1540930555.7,286047001.4,N
1540930575.5,286047002.5,N
1540930595.4,286047001.4,N
1540930615.2,286047003.4,N
1540930635.0,286047005.9,N
1540930635.9,286047005.9,N
1540930655.8,286047005.2,N
1540930675.6,286047005.4,N
1540930695.5,286047005.0,N
1540930715.3,286047005.1,N
1540930735.1,286047007.1,N
1540930755.9,286047007.1,N
1540930775.7,286047006.7,N
1540930795.5,286047004.5,N
1540930815.4,286047006.9,N
1540930835.2,286047007.4,N
1540930855.1,286047007.8,N
1540930856.0,286047007.8,N
1540930875.8,286047008.2,N
1540930895.6,286047010.4,Y
1540930915.5,286047007.0,P
1540930935.3,286047007.4,P
1540930955.1,286047006.5,P
1540930975.9,286047006.5,Y
1540930995.7,286047001.9,P
1540931015.6,286047004.4,N
1540931035.4,286047004.4,N
1540931055.2,286047001.9,N
1540931075.1,286047004.4,N
1540931076.0,286047004.4,N
1540931095.8,286047004.4,Y
1540931115.7,286046998.7,P
1540931135.5,286046999.1,N
1540931155.3,286046998.3,N
1540931175.2,286047000.0,N
1540931195.9,286046998.7,N
1540931215.7,286047000.8,N
1540931235.6,286046998.2,N
1540931255.4,286047002.4,N
1540931275.2,286046999.8,N
1540931295.1,286046999.8,N
1540931296.0,286046999.8,N
1540931315.8,286047001.6,N
1540931335.7,286047001.9,N
1540931355.5,286047003.7,N
1540931375.3,286047003.2,N
1540931395.2,286047003.8,N
1540931415.0,286047003.0,N
1540931415.9,286047003.0,N
1540931435.8,286047003.3,N
1540931455.6,286047002.9,N
1540931475.4,286047004.6,N
1540931495.3,286047007.3,Y
1540931515.1,286047005.4,P
1540931535.8,286047007.6,P
1540931555.7,286047004.7,N
1540931575.5,286047005.3,N
1540931595.4,286047007.6,Y
1540931615.2,286047004.4,P
1540931635.0,286047003.2,P
1540931635.9,286047003.2,P
1540931655.8,286047004.0,Y
1540931675.6,286046999.8,P
1540931695.5,286047000.2,N
1540931715.3,286047000.3,N
1540931735.1,286047000.2,N
1540931755.9,286047000.5,N
1540931775.7,286047000.1,N
1540931795.5,286047002.3,N
1540931815.4,286047002.8,N
1540931835.2,286047002.5,N
1540931855.0,286047001.4,N
1540931856.0,286047001.4,N
1540931875.8,286047004.6,Y
1540931895.6,286047003.4,P
1540931915.5,286047005.0,P
1540931935.3,286047007.5,P
1540931955.1,286047003.0,N
1540931975.9,286047005.2,N
1540931995.7,286047006.3,Y
1540932015.6,286047004.1,P
1540932035.4,286047001.4,P
1540932055.2,286047004.0,P
1540932075.1,286047004.3,Y
1540932076.0,286047004.3,P
1540932095.8,286047000.5,N
1540932115.6,286047000.2,N
1540932135.5,286047001.9,N
1540932155.3,286047002.5,N
1540932175.2,286047002.2,N
1540932195.9,286047001.6,N
1540932215.7,286047002.1,N
1540932235.6,286047002.3,N
1540932255.4,286046999.7,N
1540932275.2,286047003.9,N
1540932295.1,286047001.7,N
1540932296.0,286047001.7,N
1540932315.8,286047001.5,N
1540932335.7,286047001.4,N
1540932355.5,286047003.0,N
1540932375.3,286047005.5,Y
1540932395.2,286047004.0,P
1540932415.0,286047003.5,P
1540932415.9,286047003.5,P
1540932435.8,286047004.1,Y
1540932455.6,286046998.7,P
1540932475.4,286047000.5,N
1540932495.3,286047002.4,N
1540932515.1,286047002.2,N
1540932516.0,286047002.2,N
1540932535.8,286047001.3,N
1540932555.7,286047004.2,N
1540932575.5,286047004.1,N
1540932595.3,286047003.3,N
1540932615.2,286047003.6,N
1540932635.0,286047003.8,N
1540932635.9,286047003.8,N
1540932655.8,286047003.6,N
1540932675.6,286047001.4,N
1540932695.4,286047004.0,N
1540932715.3,286047003.3,N
1540932735.1,286047003.4,N
1540932755.8,286047003.5,N
1540932775.7,286047006.0,Y
1540932795.5,286047001.8,P
1540932815.4,286047001.9,P
1540932835.2,286047003.6,P
1540932855.0,286047004.0,Y
1540932855.9,286047004.0,P
1540932875.8,286047000.6,N
1540932895.6,286047002.8,N
1540932915.4,286047001.0,N
1540932935.3,286047001.0,N
1540932955.1,286047000.2,N
1540932975.9,286047000.1,N
1540932995.7,286047002.0,N
1540933015.5,286046999.9,N
1540933035.4,286046999.7,N
1540933055.2,286047000.0,N
1540933075.0,286047002.4,N
1540933075.9,286047002.4,N
1540933095.8,286047000.9,N
1540933115.6,286047002.2,N
1540933135.5,286047003.9,Y
1540933155.3,286047002.7,P
1540933175.1,286047000.2,N
1540933195.9,286047002.1,N
